RH
93 93 92 92 94 93 90 87 84 88 86 90 95 87 76 73 71 71 68 76 84 86 87 87 84 83 83 84 83 80 80 84 87 91 90 87 86 86
89 93 94 89 93 96 91 91 92 87 89 71 80 90 91 85 85 86 86 90 92 92 91 91 90 89 88 87 86 85 84 85 87 88 88 92 90 90
81 82 81 83 89 89 93 92 93 94 94 84 81 81 94 93 95 96 98 98 95 96 96 96 95 94 93 92 92 91 91 90 90 90 90 90 88 88
86 89 90 88 92 90 97 96 96 94 96 96 90 96 99 97 94 94 88 75 82 89 96 95 94 94 95 97 97 96 95 95 96 95 94 93 93 91
86 90 92 95 97 98 97 98 98 95 99 99 99 97 98 93 94 91 89 89 79 81 90 96 95 94 94 94 94 95 96 96 96 97 96 95 94 94
93 92 92 94 96 95 93 96 95 97 96 97 98 98 96 94 95 97 95 93 92 86 84 87 86 83 86 90 92 92 94 95 95 96 96 97 97 96
93 91 93 92 93 93 91 95 94 95 96 96 98 99 98 98 98 97 98 93 92 96 89 88 86 86 82 79 81 83 88 89 89 92 94 95 96 97
97 96 95 94 97 98 94 95 96 96 98 98 98 98 98 98 95 93 91 94 96 90 89 87 94 95 87 70 68 74 84 97 99 99 98 98 97 97
95 96 97 98 98 94 98 96 97 98 98 95 98 99 97 98 95 90 92 97 98 94 90 91 94 92 68 53 60 67 66 62 62 65 74 82 94 98
96 96 96 98 99 98 96 96 97 92 92 95 98 96 92 86 89 90 95 94 86 87 88 100 86 80 70 65 60 65 60 58 59 61 62 59 68 89
95 95 95 96 93 90 94 91 83 86 82 77 76 72 69 69 74 86 89 90 90 79 87 86 84 81 71 76 75 57 54 59 61 65 66 64 62 65
94 96 95 96 93 91 88 86 93 95 88 79 75 70 68 68 70 79 84 92 88 92 84 80 70 75 82 69 62 63 68 66 60 63 65 66 65 75
93 94 93 86 78 76 77 82 83 78 76 74 73 74 72 70 71 71 74 88 89 84 61 78 84 74 80 76 62 60 66 61 60 59 57 63 61 64
93 94 89 79 72 73 71 66 67 76 80 81 80 78 78 74 69 67 63 66 66 69 59 75 98 79 78 79 72 53 60 64 73 77 87 70 62 62
84 76 75 71 71 73 68 68 78 83 85 87 86 83 76 67 57 62 58 56 59 54 43 56 67 66 74 82 82 76 79 72 73 69 72 70 72 72
74 72 75 77 77 75 72 73 79 81 83 88 90 82 72 73 73 68 77 72 77 74 49 54 59 68 79 73 68 72 62 77 66 70 71 74 73 73
84 81 80 76 77 76 77 77 79 77 85 89 89 82 78 76 79 75 74 75 85 80 73 62 52 56 60 60 74 63 67 71 72 73 72 76 71 74
81 87 92 92 90 87 90 90 85 87 84 82 91 88 89 88 84 79 79 87 90 82 78 69 65 73 68 58 56 65 76 77 72 69 70 82 79 73
85 90 95 96 95 87 88 89 93 91 84 89 94 94 91 85 87 86 86 87 87 81 77 72 76 80 89 91 61 52 75 77 77 81 78 82 88 80
83 92 95 95 89 86 87 90 90 95 96 95 98 99 99 90 92 90 89 92 90 82 77 70 73 75 90 93 92 79 65 78 91 91 87 80 77 69
84 88 94 94 95 92 100 100 100 100 100 100 100 98 100 97 94 91 91 89 88 83 86 80 71 73 72 77 88 79 72 64 70 89 92 94 90 85
94 92 94 96 99 99 100 100 100 100 100 100 100 100 100 100 97 95 93 94 91 88 84 76 67 68 74 78 88 85 79 75 69 70 74 83 95 97
100 97 99 98 99 100 98 100 100 100 100 100 100 100 100 100 94 94 94 92 89 89 86 83 74 70 74 73 81 90 89 87 89 89 86 78 75 73
Wind_Speed
7 8 6 4 4 4 4 5 6 7 7 4 5 7 9 8 12 12 11 12 13 16 18 19 23 25 26 26 28 29 31 32 32 32 35 36 36 37
7 7 6 5 6 5 6 6 6 9 11 8 6 6 6 6 9 9 8 6 9 13 16 16 19 21 23 24 25 27 29 31 33 34 36 34 35 37
8 8 10 7 7 6 6 7 7 7 11 11 8 9 4 6 3 2 4 5 4 7 10 11 13 14 16 18 21 22 24 27 30 32 33 33 36 40
10 8 9 5 9 9 5 7 8 8 8 14 8 3 4 7 7 8 7 7 6 8 12 11 13 13 13 14 17 19 21 22 24 25 28 30 31 34
6 5 3 4 3 3 3 4 4 4 3 3 1 4 3 6 4 5 7 7 7 12 13 12 14 14 14 14 14 14 14 16 19 21 24 25 26 26
8 9 9 7 4 3 5 4 4 3 4 4 2 3 4 5 4 6 6 6 8 7 10 12 16 18 17 18 16 17 15 15 15 16 15 13 12 12
11 12 12 16 21 15 5 6 6 5 4 6 5 3 4 4 7 6 4 8 6 5 8 7 7 7 9 14 16 21 20 18 18 20 18 18 18 18
12 11 9 14 17 20 22 25 16 7 8 4 5 6 6 4 5 6 6 6 5 6 9 8 4 5 7 9 22 24 21 22 24 24 22 22 24 22
11 10 8 7 9 9 15 17 18 18 13 7 8 5 3 4 5 8 7 5 4 4 5 5 5 6 9 9 20 17 21 23 24 25 25 26 25 23
12 11 10 10 9 9 9 12 11 12 8 6 8 9 10 9 7 4 4 4 5 3 7 3 5 7 7 8 20 19 25 26 28 27 25 25 24 23
13 13 12 12 17 16 11 11 10 10 15 21 20 21 19 19 15 5 8 7 5 5 7 7 6 10 9 5 4 24 26 26 26 27 27 27 26 25
14 14 20 14 18 17 10 9 9 8 9 10 10 11 12 12 16 8 6 7 8 5 7 8 9 9 7 3 12 7 8 17 25 26 26 26 25 10
11 10 9 23 23 22 19 11 11 8 10 8 7 7 7 8 7 7 7 4 5 5 10 6 7 7 7 12 6 9 7 11 11 13 21 20 25 20
11 10 13 23 24 20 14 21 19 10 7 7 6 7 7 7 7 8 9 8 6 8 9 8 3 8 8 11 12 9 10 10 9 9 8 14 22 21
11 21 25 21 21 16 22 21 12 7 7 6 6 6 6 7 8 8 9 10 9 10 10 10 9 9 8 9 12 12 14 9 4 11 8 11 11 10
15 13 14 15 15 12 11 10 7 7 6 5 5 5 5 6 6 7 7 7 7 7 11 11 11 11 9 9 11 12 10 10 11 10 11 11 10 9
11 9 9 8 9 8 7 7 6 5 6 5 5 5 6 6 6 7 7 7 7 9 9 9 12 11 10 14 11 11 11 12 11 12 13 12 10 10
11 9 8 7 7 6 6 5 5 6 5 5 4 5 6 6 7 7 7 7 8 9 10 10 11 11 9 9 14 11 11 11 13 13 12 12 12 10
10 8 7 5 6 6 5 5 4 4 5 4 4 5 6 6 7 7 7 7 8 9 9 10 10 11 14 16 10 13 14 13 13 12 11 11 13 12
8 7 6 5 6 6 4 4 4 3 4 4 3 3 4 7 7 7 7 8 9 10 10 9 9 10 12 15 18 18 25 14 12 13 13 11 12 24
7 6 5 5 5 4 2 2 2 2 1 2 2 4 4 5 7 7 7 10 11 9 11 11 11 20 12 13 13 15 15 22 21 15 14 12 11 11
6 6 5 4 3 3 3 2 2 3 2 3 3 3 3 4 5 7 8 9 9 9 11 11 13 12 11 12 15 20 17 16 21 25 25 22 8 4
3 4 4 3 2 1 1 1 2 2 2 3 4 4 3 4 6 6 7 8 9 10 11 12 12 11 11 13 16 15 22 20 15 17 14 15 18 22
Wind_Direction
207 222 224 226 212 236 191 188 217 260 259 229 240 209 227 227 232 238 240 237 235 236 243 250 250 250 251 256 257 256 252 252 251 254 247 237 239 239
208 206 209 225 223 216 220 225 216 240 267 270 246 225 219 232 238 234 232 255 258 260 259 253 251 254 259 260 262 260 258 256 255 255 257 250 249 245
224 225 236 225 234 240 230 233 235 229 251 270 263 264 236 233 275 288 256 254 288 347 357 327 302 289 283 275 270 269 269 268 265 263 260 261 260 255
226 224 235 235 244 246 227 233 235 238 247 258 271 306 58 30 29 49 7 354 360 360 341 343 345 343 328 303 291 284 280 277 274 272 268 266 266 261
224 238 329 359 305 24 14 11 9 349 8 21 76 47 50 29 0 17 5 2 352 356 6 7 2 356 350 348 340 330 317 299 285 279 278 273 269 263
75 66 56 47 49 55 63 31 23 55 78 26 80 31 22 23 14 7 350 357 348 14 12 6 353 346 345 344 335 331 326 320 314 311 301 283 270 266
86 84 76 73 65 61 71 47 42 58 42 46 62 62 17 29 13 346 344 339 324 27 357 351 339 335 341 343 338 334 323 317 317 315 309 301 298 296
105 94 88 80 72 71 68 63 56 53 38 92 68 41 25 5 1 353 352 352 340 20 338 327 343 358 6 354 347 340 346 18 14 8 352 344 314 279
94 93 83 74 85 83 74 70 65 57 57 51 72 46 359 355 358 6 3 337 307 345 347 314 16 352 340 330 326 327 347 346 337 333 329 322 323 324
76 76 79 72 62 81 71 60 49 59 50 52 59 54 52 39 26 18 322 301 300 333 14 303 329 334 321 312 313 348 342 338 335 330 327 328 321 318
79 72 70 63 65 71 71 72 56 45 57 63 60 52 43 39 38 15 12 2 342 329 26 344 341 321 312 284 2 341 336 328 329 330 325 324 320 319
92 83 77 78 69 69 75 68 64 45 54 46 39 36 35 27 29 32 11 6 351 330 11 340 328 346 318 282 342 308 327 333 332 327 325 322 326 323
98 93 89 86 82 71 71 67 63 51 48 46 41 31 24 18 13 11 10 355 342 309 323 336 329 323 295 311 327 320 326 315 310 306 307 314 321 321
101 97 94 87 77 76 71 65 59 53 47 43 34 23 11 4 0 357 355 344 338 321 318 334 285 326 318 312 310 318 311 306 298 319 328 328 317 312
93 97 91 92 87 74 66 62 53 50 48 41 29 13 2 354 351 346 346 342 334 329 332 333 321 318 312 302 302 310 313 313 313 326 310 309 303 300
88 91 93 86 78 74 64 58 55 47 46 35 15 356 355 349 348 345 339 340 330 325 330 328 323 318 309 303 301 304 310 306 312 309 302 297 292 290
101 90 81 73 71 68 64 58 52 43 40 31 12 6 355 343 346 340 338 335 329 325 325 324 321 317 311 307 304 298 301 302 302 303 302 297 297 296
82 83 77 72 78 75 65 58 44 40 30 30 15 10 356 344 341 335 335 335 329 325 322 321 325 322 313 300 292 305 302 300 300 298 299 297 297 297
85 83 86 86 77 73 64 58 44 29 26 23 17 12 357 338 337 336 334 331 326 322 319 323 324 326 323 315 309 298 305 299 297 296 292 288 289 291
80 89 86 76 76 70 64 56 40 21 21 12 6 339 349 342 333 332 331 328 323 322 320 319 320 321 315 308 307 306 302 296 295 292 292 283 276 282
92 86 77 77 80 81 63 55 59 22 359 5 341 343 324 334 326 325 324 326 323 322 317 317 314 308 300 299 297 300 302 301 297 293 294 286 288 293
82 82 83 82 78 82 66 38 30 5 351 352 322 307 308 314 319 324 327 325 320 312 309 308 312 312 314 308 303 304 307 310 305 295 285 272 266 283
81 85 82 79 78 80 66 42 25 349 354 327 298 301 310 305 319 317 314 307 309 314 312 315 317 317 309 308 305 306 309 311 314 318 310 288 245 242